Hourly Weather Roundup
Issued by NWS Central Illinois

Home | Current Version | Previous Version | Text Only | Print | Product List | Glossary On
Versions: 1 2 3 4 5 6 7 8 9 10 11 12 13 14 15 16 17 18 19 20 21 22 23 24 25 26 27 28 29 30 31 32 33 34 35 36 37 38 39 40 41 42 43 44 45 46 47 48 49 50
000
NZUS43 KILX 301110
HWRILX

AREA WEATHER ROUNDUP
NATIONAL WEATHER SERVICE, LINCOLN IL
600 AM CDT SAT JUL 30 2016


CITY           SKY/WX    TMP DP  RH WIND       PRES   REMARKS
BLOOMINGTON    CLOUDY    67  67 100 VRB5      29.95S FOG
CHAMPAIGN      CLEAR     63  62  97 SW3       29.94R FOG
DANVILLE       FOG       65  65 100 CALM      29.92R VSB<1/4
DECATUR        CLEAR     68  64  87 W6        29.95R
EFFINGHAM      CLEAR     67  67 100 CALM      29.97R
FLORA          MOCLDY    73  71  93 CALM      29.95R
GALESBURG      CLOUDY    68  67  97 N5        29.96R FOG
JACKSONVILLE   PTCLDY    63  62  96 SW3       29.96R FOG
LACON          CLOUDY    68  67  96 CALM      29.94R FOG
LAWRENCEVILLE  PTCLDY    71  69  93 NW6         N/A
LITCHFIELD       N/A    N/A N/A N/A MISG        N/A
$$


CITY           SKY/WX    TMP DP  RH WIND       PRES   REMARKS
LINCOLN        FOG       66  66 100 CALM      29.94S VSB 1/2
MACOMB         CLOUDY    67  67 100 NW3       29.98R FOG
MATTOON        CLEAR     66  63  90 NW3       29.95R
MT CARMEL AP   MOCLDY    69  69  97 CALM      29.95R FOG
OLNEY-NOBLE AP PTCLDY    68  68 100 NW3       29.95S
PARIS          CLEAR     65  65 100 CALM      29.95R
PEORIA         CLOUDY    70  69  97 NW3       29.94R FOG
PONTIAC        CLOUDY    68  68 100 CALM      29.95R FOG
RANTOUL        NOT AVBL
ROBINSON       PTCLDY    66  66 100 NW3       29.95R
SPRINGFIELD    CLEAR     64  63  96 W5        29.96R
TAYLORVILLE    CLEAR     62  62  99 MISG      29.96R
$$

...REGIONAL REPORTS...


CITY           SKY/WX    TMP DP  RH WIND       PRES   REMARKS
CHICAGO O`HARE CLOUDY    71  65  81 NE10      29.95R
KANKAKEE       FOG       67  66  97 CALM      29.94R VSB 1/2
MOLINE         CLOUDY    71  65  81 CALM      29.96S
MOUNT STERLING FOG       65  65  99 NW3       29.97R VSB 1
MOUNT VERNON   CLOUDY    72  66  83 CALM      29.96R
PITTSFIELD     FOG       65  65  99 W5        29.98S VSB 1/2
QUINCY         FOG       65  65 100 NW6       29.97R VSB 1/4
ROCKFORD       PTCLDY    67  65  93 NE7       29.98R
$$


CITY           SKY/WX    TMP DP  RH WIND       PRES   REMARKS
BURLINGTON     CLOUDY    68  68 100 NW3       29.96R
CEDAR RAPIDS   CLOUDY    67  66  97 NE7       29.99R
DES MOINES     DRIZZLE   68  65  90 NW6       30.00R
KIRKSVILLE     CLOUDY    66  64  93 NW3       30.00S
OTTUMWA        CLOUDY    66  65  96 NW6       29.99R
ST LOUIS       PTCLDY    72  67  84 W5        29.97R
$$


CITY           SKY/WX    TMP DP  RH WIND       PRES   REMARKS
TERRE HAUTE    MOCLDY    69  67  93 CALM      29.94R
EVANSVILLE     CLOUDY    73  71  93 CALM      29.95R
INDIANAPOLIS   PTCLDY    68  67  96 W5        29.94R
LAFAYETTE      FOG       67  67 100 SE3       29.93R VSB 1/4
MADISON        MOCLDY    63  59  87 N5        30.00R
MILWAUKEE      CLOUDY    68  64  87 NE7       29.99R
$$





USA.gov is the U.S. government's official web portal to all federal, state and local government web resources and services.